AEE12S LGTS-LGAV

Flight info

Callsign AEE12S
Flight time 0h 32m
Altitude 27000
Route LEKPO UL617 SKP UM749 ROPOX
Aircraft A320/M-SDE3FGHIRWY/LB1

Departure

Time 2026-05-07 14:32
Airport Thessaloniki Macedonia International Airport (LGTS)

Arrival

Time 2026-05-07 15:05
Airport Athens Eleftherios Venizelos International Airport (LGAV)
Time Latitude Longitude Altitude Speed Heading
2026-05-07 13:49 40.52402 22.97461 28 ft 0 kts 44°
2026-05-07 14:21 40.52391 22.97447 28 ft 4 kts 44°
2026-05-07 14:21 40.52376 22.97427 28 ft 4 kts 46°
2026-05-07 14:21 40.52364 22.97405 28 ft 4 kts 122°
2026-05-07 14:21 40.52379 22.97382 28 ft 2 kts 135°
2026-05-07 14:22 40.52380 22.97381 28 ft 0 kts 135°
2026-05-07 14:23 40.52380 22.97382 28 ft 0 kts 135°
2026-05-07 14:24 40.52369 22.97395 28 ft 5 kts 135°
2026-05-07 14:24 40.52351 22.97419 28 ft 8 kts 136°
2026-05-07 14:24 40.52308 22.97474 28 ft 9 kts 134°
2026-05-07 14:24 40.52263 22.97534 28 ft 9 kts 135°
2026-05-07 14:25 40.52216 22.97594 28 ft 10 kts 136°
2026-05-07 14:25 40.52161 22.97649 28 ft 10 kts 148°
2026-05-07 14:25 40.52107 22.97709 28 ft 10 kts 134°
2026-05-07 14:25 40.52055 22.97776 29 ft 11 kts 135°
2026-05-07 14:26 40.52003 22.97848 29 ft 11 kts 121°
2026-05-07 14:26 40.51982 22.97947 29 ft 11 kts 103°
2026-05-07 14:26 40.51963 22.98050 29 ft 12 kts 104°
2026-05-07 14:26 40.51944 22.98155 29 ft 12 kts 103°
2026-05-07 14:27 40.51923 22.98264 29 ft 13 kts 104°
2026-05-07 14:27 40.51901 22.98377 28 ft 13 kts 104°
2026-05-07 14:27 40.51879 22.98494 29 ft 13 kts 103°
2026-05-07 14:27 40.51860 22.98597 28 ft 11 kts 103°
2026-05-07 14:28 40.51841 22.98694 28 ft 11 kts 107°
2026-05-07 14:28 40.51819 22.98786 28 ft 8 kts 119°
2026-05-07 14:28 40.51801 22.98804 28 ft 0 kts 156°
2026-05-07 14:30 40.51797 22.98805 28 ft 1 kts 158°
2026-05-07 14:30 40.51781 22.98806 7 ft 4 kts 182°
2026-05-07 14:31 40.51745 22.98790 29 ft 6 kts 211°
2026-05-07 14:31 40.51710 22.98743 29 ft 8 kts 234°
2026-05-07 14:31 40.51681 22.98671 29 ft 11 kts 258°
2026-05-07 14:31 40.51707 22.98510 28 ft 40 kts 284°
2026-05-07 14:32 40.51831 22.97856 29 ft 105 kts 284°
2026-05-07 14:32 40.52042 22.96721 31 ft 152 kts 284°
2026-05-07 14:32 40.52328 22.95283 309 ft 171 kts 284°
2026-05-07 14:32 40.52651 22.93723 851 ft 181 kts 285°
2026-05-07 14:33 40.53000 22.92104 1476 ft 187 kts 285°
2026-05-07 14:33 40.53368 22.90435 2019 ft 196 kts 285°
2026-05-07 14:33 40.53779 22.88615 2298 ft 221 kts 286°
2026-05-07 14:33 40.54249 22.86561 2672 ft 247 kts 286°
2026-05-07 14:34 40.54766 22.84285 3116 ft 271 kts 285°
2026-05-07 14:34 40.55296 22.81855 3904 ft 280 kts 284°
2026-05-07 14:34 40.55449 22.79311 4740 ft 284 kts 258°
2026-05-07 14:34 40.54633 22.77015 5761 ft 277 kts 229°
2026-05-07 14:35 40.53099 22.75575 6826 ft 273 kts 201°
2026-05-07 14:35 40.51211 22.75197 7653 ft 280 kts 182°
2026-05-07 14:35 40.49263 22.75502 8489 ft 286 kts 167°
2026-05-07 14:35 40.47440 22.76591 9373 ft 292 kts 148°
2026-05-07 14:36 40.45886 22.78231 10181 ft 296 kts 142°
2026-05-07 14:36 40.44329 22.80058 10847 ft 303 kts 141°
2026-05-07 14:36 40.42716 22.81967 11160 ft 323 kts 142°
2026-05-07 14:36 40.40940 22.83944 11336 ft 346 kts 143°
2026-05-07 14:37 40.39024 22.86009 11521 ft 366 kts 144°
2026-05-07 14:37 40.35003 22.90328 12651 ft 380 kts 143°
2026-05-07 14:37 40.32981 22.92522 13268 ft 385 kts 143°
2026-05-07 14:38 40.30891 22.94805 13896 ft 390 kts 143°
2026-05-07 14:38 40.28798 22.97098 14451 ft 394 kts 143°
2026-05-07 14:38 40.26687 22.99409 15023 ft 397 kts 143°
2026-05-07 14:38 40.24586 23.01705 15582 ft 400 kts 143°
2026-05-07 14:39 40.22415 23.04077 16161 ft 403 kts 143°
2026-05-07 14:39 40.20283 23.06401 16726 ft 406 kts 143°
2026-05-07 14:39 40.18100 23.08775 17319 ft 409 kts 143°
2026-05-07 14:39 40.15903 23.11159 17907 ft 412 kts 143°
2026-05-07 14:40 40.13660 23.13591 18504 ft 416 kts 144°
2026-05-07 14:40 40.11345 23.15772 19027 ft 415 kts 153°
2026-05-07 14:40 40.08765 23.17434 19567 ft 413 kts 163°
2026-05-07 14:40 40.06029 23.18782 20137 ft 416 kts 163°
2026-05-07 14:41 40.03343 23.20099 20672 ft 419 kts 163°
2026-05-07 14:41 40.00606 23.21445 21185 ft 422 kts 163°
2026-05-07 14:41 39.97856 23.22798 21679 ft 425 kts 163°
2026-05-07 14:41 39.95083 23.24158 22153 ft 428 kts 163°
2026-05-07 14:42 39.92287 23.25529 22614 ft 430 kts 163°
2026-05-07 14:42 39.89471 23.26908 23069 ft 433 kts 163°
2026-05-07 14:42 39.86645 23.28292 23518 ft 436 kts 163°
2026-05-07 14:42 39.83801 23.29690 23912 ft 438 kts 163°
2026-05-07 14:43 39.80947 23.31095 24282 ft 441 kts 163°
2026-05-07 14:43 39.78069 23.32509 24652 ft 442 kts 163°
2026-05-07 14:43 39.75176 23.33924 24994 ft 444 kts 163°
2026-05-07 14:43 39.72284 23.35337 25098 ft 447 kts 163°
2026-05-07 14:44 39.69348 23.36769 25122 ft 454 kts 162°
2026-05-07 14:44 39.66372 23.38219 25122 ft 457 kts 162°
2026-05-07 14:44 39.63393 23.39668 25119 ft 457 kts 163°
2026-05-07 14:44 39.60411 23.41117 25119 ft 458 kts 163°
2026-05-07 14:45 39.57436 23.42560 25117 ft 458 kts 163°
2026-05-07 14:45 39.54451 23.44008 25120 ft 458 kts 163°
2026-05-07 14:45 39.51461 23.45462 25117 ft 458 kts 162°
2026-05-07 14:45 39.48484 23.46910 25116 ft 458 kts 163°
2026-05-07 14:46 39.45493 23.48359 25107 ft 458 kts 163°
2026-05-07 14:46 39.42501 23.49804 25103 ft 458 kts 163°
2026-05-07 14:46 39.39516 23.51244 25091 ft 458 kts 163°
2026-05-07 14:46 39.36528 23.52688 25094 ft 458 kts 163°
2026-05-07 14:47 39.33543 23.54133 25085 ft 459 kts 163°
2026-05-07 14:47 39.30556 23.55578 25078 ft 459 kts 163°
2026-05-07 14:47 39.27562 23.57026 25078 ft 459 kts 163°
2026-05-07 14:47 39.24568 23.58467 25074 ft 459 kts 163°
2026-05-07 14:48 39.21575 23.59902 25066 ft 459 kts 163°
2026-05-07 14:48 39.18558 23.61222 25068 ft 457 kts 169°
2026-05-07 14:48 39.15452 23.61990 25068 ft 453 kts 177°
2026-05-07 14:48 39.12320 23.62451 25075 ft 453 kts 177°
2026-05-07 14:49 39.09189 23.62909 25068 ft 453 kts 177°
2026-05-07 14:49 39.06058 23.63366 25073 ft 453 kts 177°
2026-05-07 14:49 39.02916 23.63826 25075 ft 454 kts 177°
2026-05-07 14:49 38.99776 23.64287 25080 ft 454 kts 177°
2026-05-07 14:50 38.96638 23.64753 25083 ft 455 kts 177°
2026-05-07 14:50 38.93535 23.65216 25087 ft 455 kts 177°
2026-05-07 14:50 38.90403 23.65682 25093 ft 456 kts 177°
2026-05-07 14:50 38.87238 23.66151 25092 ft 456 kts 177°
2026-05-07 14:51 38.84097 23.66614 25099 ft 450 kts 177°
2026-05-07 14:51 38.81010 23.67070 24388 ft 447 kts 178°
2026-05-07 14:51 38.77882 23.67525 23164 ft 457 kts 177°
2026-05-07 14:51 38.74716 23.67984 22189 ft 457 kts 177°
2026-05-07 14:52 38.71574 23.68445 21400 ft 453 kts 177°
2026-05-07 14:52 38.68458 23.68906 20676 ft 448 kts 177°
2026-05-07 14:52 38.65384 23.69359 19948 ft 443 kts 178°
2026-05-07 14:52 38.62343 23.69808 19247 ft 438 kts 178°
2026-05-07 14:53 38.59326 23.70251 18585 ft 433 kts 178°
2026-05-07 14:53 38.56350 23.70687 17882 ft 429 kts 178°
2026-05-07 14:53 38.53404 23.71118 17191 ft 424 kts 178°
2026-05-07 14:53 38.50478 23.71543 16537 ft 420 kts 178°
2026-05-07 14:54 38.47591 23.71958 15926 ft 416 kts 178°
2026-05-07 14:54 38.44722 23.72370 15324 ft 411 kts 177°
2026-05-07 14:54 38.41896 23.72779 14544 ft 407 kts 177°
2026-05-07 14:54 38.39097 23.73186 13767 ft 402 kts 176°
2026-05-07 14:55 38.36336 23.73588 12898 ft 398 kts 176°
2026-05-07 14:55 38.33627 23.73983 12538 ft 380 kts 176°
2026-05-07 14:55 38.31110 23.74355 12398 ft 350 kts 176°
2026-05-07 14:55 38.28778 23.74697 12277 ft 325 kts 176°
2026-05-07 14:56 38.26586 23.75016 11962 ft 311 kts 176°
2026-05-07 14:56 38.24453 23.75320 11434 ft 306 kts 176°
2026-05-07 14:56 38.22349 23.75617 10888 ft 303 kts 176°
2026-05-07 14:56 38.20267 23.75969 10356 ft 301 kts 167°
2026-05-07 14:57 38.18363 23.77027 9812 ft 300 kts 146°
2026-05-07 14:57 38.16888 23.78883 9207 ft 300 kts 124°
2026-05-07 14:57 38.16035 23.81276 8606 ft 298 kts 104°
2026-05-07 14:57 38.15545 23.83820 7984 ft 296 kts 104°
2026-05-07 14:58 38.15060 23.86357 7422 ft 294 kts 104°
2026-05-07 14:58 38.14579 23.88861 6907 ft 290 kts 104°
2026-05-07 14:58 38.14100 23.91333 6390 ft 286 kts 104°
2026-05-07 14:58 38.13625 23.93770 5861 ft 282 kts 104°
2026-05-07 14:59 38.13152 23.96180 5233 ft 283 kts 104°
2026-05-07 14:59 38.12675 23.98610 4663 ft 281 kts 105°
2026-05-07 14:59 38.12212 24.00946 4470 ft 265 kts 105°
2026-05-07 14:59 38.11778 24.03142 4331 ft 247 kts 105°
2026-05-07 15:00 38.11367 24.05225 4224 ft 242 kts 105°
2026-05-07 15:00 38.10884 24.07259 4091 ft 239 kts 120°
2026-05-07 15:00 38.09760 24.08736 3619 ft 233 kts 159°
2026-05-07 15:00 38.08250 24.09008 3417 ft 213 kts 192°
2026-05-07 15:01 38.06969 24.08282 3220 ft 195 kts 216°
2026-05-07 15:01 38.05912 24.07271 2957 ft 188 kts 217°
2026-05-07 15:01 38.04895 24.06288 2730 ft 181 kts 217°
2026-05-07 15:01 38.03906 24.05340 2493 ft 180 kts 217°
2026-05-07 15:02 38.02945 24.04421 2244 ft 166 kts 217°
2026-05-07 15:02 38.02045 24.03557 1989 ft 161 kts 216°
2026-05-07 15:02 38.01158 24.02708 1802 ft 159 kts 216°
2026-05-07 15:02 38.00290 24.01860 1594 ft 154 kts 215°
2026-05-07 15:03 37.99451 24.01064 1375 ft 146 kts 215°
2026-05-07 15:03 37.98653 24.00302 1215 ft 143 kts 215°
2026-05-07 15:03 37.97867 23.99551 1064 ft 140 kts 215°
2026-05-07 15:03 37.97084 23.98810 899 ft 140 kts 216°
2026-05-07 15:04 37.96305 23.98082 680 ft 138 kts 217°
2026-05-07 15:04 37.95539 23.97366 484 ft 136 kts 219°
2026-05-07 15:04 37.94787 23.96635 314 ft 134 kts 217°
2026-05-07 15:04 37.94125 23.96008 283 ft 98 kts 217°
2026-05-07 15:05 37.93717 23.95622 279 ft 51 kts 216°
2026-05-07 15:05 37.93500 23.95345 285 ft 36 kts 243°
2026-05-07 15:05 37.93456 23.95221 294 ft 7 kts 246°
2026-05-07 15:05 37.93451 23.95208 295 ft 0 kts 248°
2026-05-07 15:06 37.93451 23.95207 295 ft 0 kts 250°
2026-05-07 15:06 37.93452 23.95202 297 ft 3 kts 271°
2026-05-07 15:06 37.93493 23.95153 297 ft 10 kts 352°
2026-05-07 15:06 37.93559 23.95195 299 ft 12 kts 36°
2026-05-07 15:07 37.93625 23.95257 299 ft 7 kts 39°
2026-05-07 15:07 37.93670 23.95303 297 ft 10 kts 38°
2026-05-07 15:07 37.93731 23.95357 300 ft 12 kts 36°
2026-05-07 15:07 37.93817 23.95436 301 ft 17 kts 37°
2026-05-07 15:08 37.93895 23.95516 296 ft 10 kts 39°
2026-05-07 15:08 37.93953 23.95572 298 ft 11 kts 36°
2026-05-07 15:08 37.93999 23.95613 300 ft 6 kts 35°
2026-05-07 15:08 37.94043 23.95648 297 ft 9 kts 20°
2026-05-07 15:09 37.94096 23.95598 300 ft 13 kts 280°
2026-05-07 15:09 37.94040 23.95507 302 ft 15 kts 217°
2026-05-07 15:09 37.93950 23.95420 300 ft 17 kts 217°
2026-05-07 15:09 37.93907 23.95324 300 ft 11 kts 288°
2026-05-07 15:10 37.93953 23.95249 300 ft 10 kts 307°
2026-05-07 15:10 37.93983 23.95252 300 ft 5 kts 37°
2026-05-07 15:10 37.94016 23.95283 300 ft 6 kts 37°
2026-05-07 15:10 37.94027 23.95294 301 ft 0 kts 37°